View from above orbital plane
|
View from above satellite
|
Ground track
|
The orbit data is extracted from the following two-line orbital elements,
1 16111U 85090B 21063.08476005 .00021247 00000-0 17930-3 0 9993
2 16111 97.4826 258.6721 0010327 29.2695 330.9144 15.69750399955675
Epoch (UTC): | 04 March 2021 02:02:03 |
Eccentricity: | 0.0010327 |
inclination: | 97.4826° |
perigee height: | 352 km |
apogee height: | 366 km |
right ascension of ascending node: | 258.6721° |
argument of perigee: | 29.2695° |
revolutions per day: | 15.69750399 |
mean anomaly at epoch: | 330.9144° |
orbit number at epoch: | 95567 |
The dashed part of the orbit path shows where the satellite is in the earth's shadow,
|
|